Year,Month,Day,Hour,Minute,Value (Times are PST for temperature in C)
2015,07,20,00,00,24.10
2015,07,20,00,01,24.10
2015,07,20,00,02,24.10
2015,07,20,00,03,24.10
2015,07,20,00,04,24.10
2015,07,20,00,05,24.10
2015,07,20,00,06,24.10
2015,07,20,00,07,24.10
2015,07,20,00,08,24.10
2015,07,20,00,09,24.00
2015,07,20,00,10,24.00
2015,07,20,00,11,24.00
2015,07,20,00,12,24.00
2015,07,20,00,13,23.90
2015,07,20,00,14,23.90
2015,07,20,00,15,23.90
2015,07,20,00,16,23.90
2015,07,20,00,17,23.90
2015,07,20,00,18,23.90
2015,07,20,00,19,23.90
2015,07,20,00,20,23.80
2015,07,20,00,21,23.80
2015,07,20,00,22,23.80
2015,07,20,00,23,23.80
2015,07,20,00,24,23.80
2015,07,20,00,25,23.80
2015,07,20,00,26,23.80
2015,07,20,00,27,23.80
2015,07,20,00,28,23.70
2015,07,20,00,29,23.70
2015,07,20,00,30,23.70
2015,07,20,00,31,23.70
2015,07,20,00,32,23.60
2015,07,20,00,33,23.60
2015,07,20,00,34,23.50
2015,07,20,00,35,23.40
2015,07,20,00,36,23.40
2015,07,20,00,37,23.30
2015,07,20,00,38,23.30
2015,07,20,00,39,23.20
2015,07,20,00,40,23.20
2015,07,20,00,41,23.10
2015,07,20,00,42,23.10
2015,07,20,00,43,23.00
2015,07,20,00,44,23.00
2015,07,20,00,45,22.90
2015,07,20,00,46,22.90
2015,07,20,00,47,22.80
2015,07,20,00,48,22.80
2015,07,20,00,49,22.80
2015,07,20,00,50,22.80
2015,07,20,00,51,22.70
2015,07,20,00,52,22.70
2015,07,20,00,53,22.60
2015,07,20,00,54,22.60
2015,07,20,00,55,22.50
2015,07,20,00,56,22.50
2015,07,20,00,57,22.40
2015,07,20,00,58,22.40
2015,07,20,00,59,22.40
2015,07,20,01,00,22.40
2015,07,20,01,01,22.50
2015,07,20,01,02,22.50
2015,07,20,01,03,22.50
2015,07,20,01,04,22.50
2015,07,20,01,05,22.60
2015,07,20,01,06,22.60
2015,07,20,01,07,22.60
2015,07,20,01,08,22.60
2015,07,20,01,09,22.60
2015,07,20,01,10,22.60
2015,07,20,01,11,22.60
2015,07,20,01,12,22.60
2015,07,20,01,13,22.60
2015,07,20,01,14,22.60
2015,07,20,01,15,22.70
2015,07,20,01,16,22.70
2015,07,20,01,17,22.70
2015,07,20,01,18,22.70
2015,07,20,01,19,22.70
2015,07,20,01,20,22.70
2015,07,20,01,21,22.70
2015,07,20,01,22,22.80
2015,07,20,01,23,22.80
2015,07,20,01,24,22.80
2015,07,20,01,25,22.80
2015,07,20,01,26,22.80
2015,07,20,01,27,22.80
2015,07,20,01,28,22.80
2015,07,20,01,29,22.70
2015,07,20,01,30,22.70
2015,07,20,01,31,22.70
2015,07,20,01,32,22.70
2015,07,20,01,33,22.70
2015,07,20,01,34,22.70
2015,07,20,01,35,22.70
2015,07,20,01,36,22.60
2015,07,20,01,37,22.60
2015,07,20,01,38,22.60
2015,07,20,01,39,22.60
2015,07,20,01,40,22.60
2015,07,20,01,41,22.60
2015,07,20,01,42,22.60
2015,07,20,01,43,22.60
2015,07,20,01,44,22.60
2015,07,20,01,45,22.60
2015,07,20,01,46,22.50
2015,07,20,01,47,22.50
2015,07,20,01,48,22.50
2015,07,20,01,49,22.50
2015,07,20,01,50,22.50
2015,07,20,01,51,22.40
2015,07,20,01,52,22.40
2015,07,20,01,53,22.40
2015,07,20,01,54,22.40
2015,07,20,01,55,22.40
2015,07,20,01,56,22.40
2015,07,20,01,57,22.40
2015,07,20,01,58,22.30
2015,07,20,01,59,22.30
2015,07,20,02,00,22.30
2015,07,20,02,01,22.30
2015,07,20,02,02,22.30
2015,07,20,02,03,22.30
2015,07,20,02,04,22.30
2015,07,20,02,05,22.30
2015,07,20,02,06,22.30
2015,07,20,02,07,22.30
2015,07,20,02,08,22.30
2015,07,20,02,09,22.30
2015,07,20,02,10,22.30
2015,07,20,02,11,22.20
2015,07,20,02,12,22.20
2015,07,20,02,13,22.20
2015,07,20,02,14,22.10
2015,07,20,02,15,22.10
2015,07,20,02,16,22.10
2015,07,20,02,17,22.00
2015,07,20,02,18,21.90
2015,07,20,02,19,21.90
2015,07,20,02,20,21.80
2015,07,20,02,21,21.80
2015,07,20,02,22,21.70
2015,07,20,02,23,21.70
2015,07,20,02,24,21.60
2015,07,20,02,25,21.60
2015,07,20,02,26,21.50
2015,07,20,02,27,21.50
2015,07,20,02,28,21.40
2015,07,20,02,29,21.40
2015,07,20,02,30,21.30
2015,07,20,02,31,21.30
2015,07,20,02,32,21.30
2015,07,20,02,33,21.20
2015,07,20,02,34,21.20
2015,07,20,02,35,21.20
2015,07,20,02,36,21.10
2015,07,20,02,37,21.10
2015,07,20,02,38,21.00
2015,07,20,02,39,21.00
2015,07,20,02,40,20.90
2015,07,20,02,41,20.90
2015,07,20,02,42,20.80
2015,07,20,02,43,20.80
2015,07,20,02,44,20.70
2015,07,20,02,45,20.70
2015,07,20,02,46,20.60
2015,07,20,02,47,20.60
2015,07,20,02,48,20.50
2015,07,20,02,49,20.50
2015,07,20,02,50,20.40
2015,07,20,02,51,20.40
2015,07,20,02,52,20.30
2015,07,20,02,53,20.30
2015,07,20,02,54,20.30
2015,07,20,02,55,20.20
2015,07,20,02,56,20.20
2015,07,20,02,57,20.20
2015,07,20,02,58,20.20
2015,07,20,02,59,20.10
2015,07,20,03,00,20.10
2015,07,20,03,01,20.10
2015,07,20,03,02,20.10
2015,07,20,03,03,20.10
2015,07,20,03,06,20.20
2015,07,20,03,07,20.20
2015,07,20,03,08,20.20
2015,07,20,03,09,20.20
2015,07,20,03,10,20.20
2015,07,20,03,11,20.20
2015,07,20,03,12,20.20
2015,07,20,03,13,20.10
2015,07,20,03,14,20.10
2015,07,20,03,15,20.10
2015,07,20,03,16,20.10
2015,07,20,03,17,20.10
2015,07,20,03,18,20.10
2015,07,20,03,19,20.10
2015,07,20,03,20,20.10
2015,07,20,03,21,20.00
2015,07,20,03,22,20.00
2015,07,20,03,23,20.00
2015,07,20,03,24,20.00
2015,07,20,03,25,20.00
2015,07,20,03,26,20.00
2015,07,20,03,27,20.00
2015,07,20,03,28,20.00
2015,07,20,03,29,20.00
2015,07,20,03,30,20.00
2015,07,20,03,31,20.00
2015,07,20,03,32,20.00
2015,07,20,03,33,19.90
2015,07,20,03,34,19.90
2015,07,20,03,35,19.90
2015,07,20,03,36,19.90
2015,07,20,03,37,19.90
2015,07,20,03,38,19.90
2015,07,20,03,39,19.90
2015,07,20,03,40,20.00
2015,07,20,03,41,20.00
2015,07,20,03,42,20.00
2015,07,20,03,43,20.10
2015,07,20,03,44,20.10
2015,07,20,03,45,20.10
2015,07,20,03,46,20.20
2015,07,20,03,47,20.20
2015,07,20,03,48,20.20
2015,07,20,03,49,20.20
2015,07,20,03,50,20.20
2015,07,20,03,51,20.10
2015,07,20,03,52,20.10
2015,07,20,03,53,20.10
2015,07,20,03,54,20.00
2015,07,20,03,55,20.00
2015,07,20,03,56,20.00
2015,07,20,03,57,19.90
2015,07,20,03,58,19.90
2015,07,20,03,59,19.80
2015,07,20,04,00,19.80
2015,07,20,04,01,19.80
2015,07,20,04,02,19.80
2015,07,20,04,03,19.70
2015,07,20,04,04,19.70
2015,07,20,04,05,19.70
2015,07,20,04,06,19.70
2015,07,20,04,07,19.70
2015,07,20,04,08,19.70
2015,07,20,04,09,19.60
2015,07,20,04,10,19.60
2015,07,20,04,11,19.60
2015,07,20,04,12,19.50
2015,07,20,04,13,19.50
2015,07,20,04,14,19.40
2015,07,20,04,15,19.40
2015,07,20,04,16,19.40
2015,07,20,04,17,19.40
2015,07,20,04,18,19.30
2015,07,20,04,19,19.30
2015,07,20,04,20,19.30
2015,07,20,04,21,19.30
2015,07,20,04,22,19.20
2015,07,20,04,23,19.20
2015,07,20,04,24,19.20
2015,07,20,04,25,19.10
2015,07,20,04,26,19.10
2015,07,20,04,27,19.10
2015,07,20,04,28,19.00
2015,07,20,04,29,19.00
2015,07,20,04,30,18.90
2015,07,20,04,31,18.90
2015,07,20,04,32,18.90
2015,07,20,04,33,18.90
2015,07,20,04,34,18.90
2015,07,20,04,35,18.80
2015,07,20,04,36,18.80
2015,07,20,04,37,18.80
2015,07,20,04,38,18.80
2015,07,20,04,39,18.80
2015,07,20,04,40,18.80
2015,07,20,04,41,18.80
2015,07,20,04,42,18.80
2015,07,20,04,43,18.80
2015,07,20,04,44,18.70
2015,07,20,04,45,18.70
2015,07,20,04,46,18.70
2015,07,20,04,47,18.70
2015,07,20,04,48,18.70
2015,07,20,04,49,18.70
2015,07,20,04,50,18.70
2015,07,20,04,51,18.70
2015,07,20,04,52,18.70
2015,07,20,04,53,18.70
2015,07,20,04,54,18.80
2015,07,20,04,55,18.80
2015,07,20,04,56,18.80
2015,07,20,04,57,18.80
2015,07,20,04,58,18.80
2015,07,20,04,59,18.80
2015,07,20,05,00,18.80
2015,07,20,05,01,18.80
2015,07,20,05,02,18.70
2015,07,20,05,03,18.70
2015,07,20,05,04,18.70
2015,07,20,05,05,18.70
2015,07,20,05,06,18.70
2015,07,20,05,07,18.60
2015,07,20,05,08,18.60
2015,07,20,05,09,18.60
2015,07,20,05,10,18.50
2015,07,20,05,11,18.50
2015,07,20,05,12,18.40
2015,07,20,05,13,18.40
2015,07,20,05,14,18.40
2015,07,20,05,15,18.30
2015,07,20,05,16,18.30
2015,07,20,05,17,18.30
2015,07,20,05,18,18.30
2015,07,20,05,19,18.20
2015,07,20,05,20,18.20
2015,07,20,05,21,18.10
2015,07,20,05,22,18.10
2015,07,20,05,23,18.10
2015,07,20,05,24,18.10
2015,07,20,05,25,18.00
2015,07,20,05,26,18.00
2015,07,20,05,27,17.90
2015,07,20,05,28,17.90
2015,07,20,05,29,17.90
2015,07,20,05,30,17.80
2015,07,20,05,31,17.80
2015,07,20,05,32,17.80
2015,07,20,05,33,17.70
2015,07,20,05,34,17.70
2015,07,20,05,35,17.70
2015,07,20,05,36,17.60
2015,07,20,05,37,17.60
2015,07,20,05,38,17.60
2015,07,20,05,39,17.60
2015,07,20,05,40,17.60
2015,07,20,05,41,17.60
2015,07,20,05,42,17.50
2015,07,20,05,43,17.50
2015,07,20,05,44,17.50
2015,07,20,05,45,17.50
2015,07,20,05,46,17.40
2015,07,20,05,47,17.40
2015,07,20,05,48,17.40
2015,07,20,05,49,17.40
2015,07,20,05,50,17.40
2015,07,20,05,51,17.40
2015,07,20,05,52,17.30
2015,07,20,05,53,17.30
2015,07,20,05,54,17.30
2015,07,20,05,55,17.30
2015,07,20,05,56,17.30
2015,07,20,05,57,17.20
2015,07,20,05,58,17.20
2015,07,20,05,59,17.20
2015,07,20,06,00,17.20
2015,07,20,06,01,17.20
2015,07,20,06,02,17.20
2015,07,20,06,03,17.10
2015,07,20,06,04,17.10
2015,07,20,06,05,17.10
2015,07,20,06,06,17.10
2015,07,20,06,07,17.10
2015,07,20,06,08,17.10
2015,07,20,06,09,17.10
2015,07,20,06,10,17.10
2015,07,20,06,11,17.10
2015,07,20,06,12,17.10
2015,07,20,06,13,17.10
2015,07,20,06,14,17.10
2015,07,20,06,15,17.10
2015,07,20,06,16,17.10
2015,07,20,06,17,17.10
2015,07,20,06,18,17.10
2015,07,20,06,19,17.10
2015,07,20,06,20,17.10
2015,07,20,06,21,17.10
2015,07,20,06,22,17.10
2015,07,20,06,23,17.00
2015,07,20,06,24,17.00
2015,07,20,06,25,17.00
2015,07,20,06,26,17.10
2015,07,20,06,27,17.10
2015,07,20,06,28,17.10
2015,07,20,06,29,17.10
2015,07,20,06,30,17.10
2015,07,20,06,31,17.10
2015,07,20,06,32,17.10
2015,07,20,06,33,17.10
2015,07,20,06,34,17.10
2015,07,20,06,35,17.10
2015,07,20,06,36,17.00
2015,07,20,06,37,17.00
2015,07,20,06,38,17.00
2015,07,20,06,39,17.00
2015,07,20,06,40,17.00
2015,07,20,06,41,17.00
2015,07,20,06,42,17.00
2015,07,20,06,43,17.00
2015,07,20,06,44,17.00
2015,07,20,06,45,17.00
2015,07,20,06,46,17.00
2015,07,20,06,47,17.00
2015,07,20,06,48,17.00
2015,07,20,06,49,17.00
2015,07,20,06,50,17.10
2015,07,20,06,51,17.10
2015,07,20,06,52,17.10
2015,07,20,06,53,17.10
2015,07,20,06,54,17.10
2015,07,20,06,55,17.10
2015,07,20,06,56,17.10
2015,07,20,06,57,17.10
2015,07,20,06,58,17.10
2015,07,20,06,59,17.10
2015,07,20,07,00,17.10
2015,07,20,07,01,17.10
2015,07,20,07,02,17.20
2015,07,20,07,03,17.20
2015,07,20,07,04,17.20
2015,07,20,07,05,17.20
2015,07,20,07,06,17.20
2015,07,20,07,07,17.20
2015,07,20,07,08,17.20
2015,07,20,07,09,17.20
2015,07,20,07,10,17.20
2015,07,20,07,11,17.30
2015,07,20,07,12,17.30
2015,07,20,07,13,17.30
2015,07,20,07,14,17.30
2015,07,20,07,15,17.30
2015,07,20,07,16,17.30
2015,07,20,07,17,17.30
2015,07,20,07,18,17.30
2015,07,20,07,19,17.30
2015,07,20,07,20,17.30
2015,07,20,07,21,17.40
2015,07,20,07,22,17.40
2015,07,20,07,23,17.40
2015,07,20,07,24,17.40
2015,07,20,07,25,17.50
2015,07,20,07,26,17.50
2015,07,20,07,27,17.60
2015,07,20,07,28,17.60
2015,07,20,07,29,17.60
2015,07,20,07,30,17.60
2015,07,20,07,31,17.70
2015,07,20,07,32,17.70
2015,07,20,07,33,17.70
2015,07,20,07,34,17.70
2015,07,20,07,35,17.70
2015,07,20,07,36,17.70
2015,07,20,07,37,17.80
2015,07,20,07,38,17.80
2015,07,20,07,39,17.80
2015,07,20,07,40,17.80
2015,07,20,07,41,17.80
2015,07,20,07,42,17.80
2015,07,20,07,43,17.90
2015,07,20,07,44,17.90
2015,07,20,07,45,17.90
2015,07,20,07,46,17.90
2015,07,20,07,47,17.90
2015,07,20,07,48,18.00
2015,07,20,07,49,18.00
2015,07,20,07,50,18.00
2015,07,20,07,51,18.10
2015,07,20,07,52,18.10
2015,07,20,07,53,18.10
2015,07,20,07,54,18.10
2015,07,20,07,55,18.10
2015,07,20,07,56,18.20
2015,07,20,07,57,18.20
2015,07,20,07,58,18.20
2015,07,20,07,59,18.20
2015,07,20,08,00,18.20
2015,07,20,08,01,18.20
2015,07,20,08,02,18.30
2015,07,20,08,03,18.30
2015,07,20,08,04,18.30
2015,07,20,08,05,18.30
2015,07,20,08,06,18.40
2015,07,20,08,07,18.40
2015,07,20,08,08,18.40
2015,07,20,08,09,18.40
2015,07,20,08,10,18.40
2015,07,20,08,11,18.40
2015,07,20,08,12,18.40
2015,07,20,08,13,18.40
2015,07,20,08,14,18.50
2015,07,20,08,15,18.50
2015,07,20,08,16,18.50
2015,07,20,08,17,18.50
2015,07,20,08,18,18.60
2015,07,20,08,19,18.60
2015,07,20,08,20,18.70
2015,07,20,08,21,18.70
2015,07,20,08,22,18.80
2015,07,20,08,23,18.80
2015,07,20,08,24,18.90
2015,07,20,08,25,18.90
2015,07,20,08,26,18.90
2015,07,20,08,27,19.00
2015,07,20,08,28,19.00
2015,07,20,08,29,19.10
2015,07,20,08,30,19.10
2015,07,20,08,31,19.10
2015,07,20,08,32,19.10
2015,07,20,08,33,19.20
2015,07,20,08,34,19.20
2015,07,20,08,35,19.20
2015,07,20,08,36,19.20
2015,07,20,08,37,19.20
2015,07,20,08,38,19.20
2015,07,20,08,39,19.20
2015,07,20,08,40,19.30
2015,07,20,08,41,19.30
2015,07,20,08,42,19.40
2015,07,20,08,43,19.40
2015,07,20,08,44,19.50
2015,07,20,08,45,19.60
2015,07,20,08,46,19.70
2015,07,20,08,47,19.70
2015,07,20,08,48,19.70
2015,07,20,08,49,19.80
2015,07,20,08,50,19.80
2015,07,20,08,51,19.90
2015,07,20,08,52,19.90
2015,07,20,08,53,20.00
2015,07,20,08,54,20.00
2015,07,20,08,55,20.10
2015,07,20,08,56,20.20
2015,07,20,08,57,20.20
2015,07,20,08,58,20.30
2015,07,20,08,59,20.40
2015,07,20,09,00,20.40
2015,07,20,09,01,20.40
2015,07,20,09,02,20.40
2015,07,20,09,03,20.40
2015,07,20,09,04,20.50
2015,07,20,09,05,20.50
2015,07,20,09,06,20.60
2015,07,20,09,07,20.60
2015,07,20,09,08,20.70
2015,07,20,09,09,20.70
2015,07,20,09,10,20.80
2015,07,20,09,11,20.80
2015,07,20,09,12,20.90
2015,07,20,09,13,20.90
2015,07,20,09,14,21.00
2015,07,20,09,15,21.00
2015,07,20,09,16,21.10
2015,07,20,09,17,21.10
2015,07,20,09,18,21.20
2015,07,20,09,19,21.20
2015,07,20,09,20,21.30
2015,07,20,09,21,21.30
2015,07,20,09,22,21.40
2015,07,20,09,23,21.40
2015,07,20,09,24,21.40
2015,07,20,09,25,21.30
2015,07,20,09,26,21.40
2015,07,20,09,27,21.40
2015,07,20,09,28,21.40
2015,07,20,09,29,21.40
2015,07,20,09,30,21.40
2015,07,20,09,31,21.40
2015,07,20,09,32,21.40
2015,07,20,09,33,21.40
2015,07,20,09,34,21.50
2015,07,20,09,35,21.50
2015,07,20,09,36,21.50
2015,07,20,09,37,21.50
2015,07,20,09,38,21.60
2015,07,20,09,39,21.60
2015,07,20,09,40,21.60
2015,07,20,09,41,21.60
2015,07,20,09,42,21.70
2015,07,20,09,43,21.70
2015,07,20,09,44,21.70
2015,07,20,09,45,21.70
2015,07,20,09,46,21.70
2015,07,20,09,47,21.70
2015,07,20,09,48,21.80
2015,07,20,09,49,21.80
2015,07,20,09,50,21.80
2015,07,20,09,51,21.80
2015,07,20,09,52,21.80
2015,07,20,09,53,21.80
2015,07,20,09,54,21.80
2015,07,20,09,55,21.90
2015,07,20,09,56,21.90
2015,07,20,09,57,21.80
2015,07,20,09,58,21.80
2015,07,20,09,59,21.80
2015,07,20,10,00,21.80
2015,07,20,10,01,21.90
2015,07,20,10,02,22.00
2015,07,20,10,03,22.00
2015,07,20,10,04,22.10
2015,07,20,10,05,22.00
2015,07,20,10,06,22.00
2015,07,20,10,07,21.90
2015,07,20,10,08,21.90
2015,07,20,10,09,21.90
2015,07,20,10,10,21.90
2015,07,20,10,11,21.90
2015,07,20,10,12,21.80
2015,07,20,10,13,21.80
2015,07,20,10,14,21.80
2015,07,20,10,15,21.80
2015,07,20,10,16,21.90
2015,07,20,10,17,21.90
2015,07,20,10,18,21.90
2015,07,20,10,19,21.90
2015,07,20,10,20,22.00
2015,07,20,10,21,22.10
2015,07,20,10,22,22.20
2015,07,20,10,23,22.20
2015,07,20,10,24,22.20
2015,07,20,10,25,22.20
2015,07,20,10,26,22.30
2015,07,20,10,27,22.30
2015,07,20,10,28,22.40
2015,07,20,10,29,22.40
2015,07,20,10,30,22.40
2015,07,20,10,31,22.50
2015,07,20,10,32,22.40
2015,07,20,10,33,22.50
2015,07,20,10,34,22.50
2015,07,20,10,35,22.60
2015,07,20,10,36,22.60
2015,07,20,10,37,22.70
2015,07,20,10,38,22.70
2015,07,20,10,39,22.70
2015,07,20,10,40,22.80
2015,07,20,10,41,22.80
2015,07,20,10,42,22.80
2015,07,20,10,43,22.80
2015,07,20,10,44,22.80
2015,07,20,10,45,22.80
2015,07,20,10,46,22.90
2015,07,20,10,47,23.00
2015,07,20,10,48,23.00
2015,07,20,10,49,23.10
2015,07,20,10,50,23.10
2015,07,20,10,51,23.20
2015,07,20,10,52,23.20
2015,07,20,10,53,23.30
2015,07,20,10,54,23.30
2015,07,20,10,55,23.30
2015,07,20,10,56,23.30
2015,07,20,10,57,23.30
2015,07,20,10,58,23.30
2015,07,20,10,59,23.40
2015,07,20,11,00,23.50
2015,07,20,11,01,23.60
2015,07,20,11,02,23.70
2015,07,20,11,03,23.80
2015,07,20,11,04,23.80
2015,07,20,11,05,23.90
2015,07,20,11,06,23.90
2015,07,20,11,07,24.00
2015,07,20,11,08,24.00
2015,07,20,11,09,24.00
2015,07,20,11,10,23.90
2015,07,20,11,11,23.90
2015,07,20,11,12,23.80
2015,07,20,11,13,23.80
2015,07,20,11,14,23.70
2015,07,20,11,15,23.70
2015,07,20,11,16,23.70
2015,07,20,11,17,23.70
2015,07,20,11,18,23.60
2015,07,20,11,19,23.60
2015,07,20,11,20,23.50
2015,07,20,11,21,23.40
2015,07,20,11,22,23.40
2015,07,20,11,23,23.40
2015,07,20,11,24,23.30
2015,07,20,11,25,23.30
2015,07,20,11,26,23.30
2015,07,20,11,27,23.40
2015,07,20,11,28,23.40
2015,07,20,11,29,23.30
2015,07,20,11,30,23.20
2015,07,20,11,31,23.20
2015,07,20,11,32,23.20
2015,07,20,11,33,23.20
2015,07,20,11,34,23.30
2015,07,20,11,35,23.30
2015,07,20,11,36,23.30
2015,07,20,11,37,23.30
2015,07,20,11,38,23.40
2015,07,20,11,39,23.40
2015,07,20,11,40,23.40
2015,07,20,11,41,23.40
2015,07,20,11,42,23.40
2015,07,20,11,43,23.50
2015,07,20,11,44,23.50
2015,07,20,11,45,23.50
2015,07,20,11,46,23.50
2015,07,20,11,47,23.60
2015,07,20,11,48,23.60
2015,07,20,11,49,23.60
2015,07,20,11,50,23.60
2015,07,20,11,51,23.70
2015,07,20,11,52,23.70
2015,07,20,11,53,23.60
2015,07,20,11,54,23.50
2015,07,20,11,55,23.40
2015,07,20,11,56,23.30
2015,07,20,11,57,23.30
2015,07,20,11,58,23.30
2015,07,20,11,59,23.30
2015,07,20,12,00,23.30
2015,07,20,12,01,23.20
2015,07,20,12,02,23.20
2015,07,20,12,03,23.20
2015,07,20,12,04,23.20
2015,07,20,12,05,23.20
2015,07,20,12,06,23.20
2015,07,20,12,07,23.20
2015,07,20,12,08,23.30
2015,07,20,12,09,23.30
2015,07,20,12,10,23.40
2015,07,20,12,11,23.40
2015,07,20,12,12,23.50
2015,07,20,12,13,23.50
2015,07,20,12,14,23.60
2015,07,20,12,15,23.60
2015,07,20,12,16,23.70
2015,07,20,12,17,23.70
2015,07,20,12,18,23.60
2015,07,20,12,19,23.60
2015,07,20,12,20,23.50
2015,07,20,12,21,23.40
2015,07,20,12,22,23.40
2015,07,20,12,23,23.40
2015,07,20,12,24,23.40
2015,07,20,12,25,23.40
2015,07,20,12,26,23.50
2015,07,20,12,27,23.60
2015,07,20,12,28,23.50
2015,07,20,12,29,23.60
2015,07,20,12,30,23.60
2015,07,20,12,31,23.70
2015,07,20,12,32,23.70
2015,07,20,12,33,23.70
2015,07,20,12,34,23.80
2015,07,20,12,35,23.90
2015,07,20,12,36,24.00
2015,07,20,12,37,24.10
2015,07,20,12,38,24.10
2015,07,20,12,39,24.10
2015,07,20,12,40,24.00
2015,07,20,12,41,23.90
2015,07,20,12,42,23.90
2015,07,20,12,43,23.80
2015,07,20,12,44,23.80
2015,07,20,12,45,23.80
2015,07,20,12,46,23.80
2015,07,20,12,47,23.80
2015,07,20,12,48,23.90
2015,07,20,12,49,23.90
2015,07,20,12,50,23.90
2015,07,20,12,51,24.00
2015,07,20,12,52,24.00
2015,07,20,12,53,24.10
2015,07,20,12,54,24.20
2015,07,20,12,55,24.20
2015,07,20,12,56,24.30
2015,07,20,12,57,24.30
2015,07,20,12,58,24.20
2015,07,20,12,59,24.20
2015,07,20,13,00,24.20
2015,07,20,13,01,24.10
2015,07,20,13,02,24.10
2015,07,20,13,03,24.10
2015,07,20,13,04,24.10
2015,07,20,13,05,24.10
2015,07,20,13,06,24.20
2015,07,20,13,07,24.30
2015,07,20,13,08,24.30
2015,07,20,13,09,24.40
2015,07,20,13,10,24.50
2015,07,20,13,11,24.60
2015,07,20,13,12,24.60
2015,07,20,13,13,24.60
2015,07,20,13,14,24.70
2015,07,20,13,15,24.80
2015,07,20,13,16,24.80
2015,07,20,13,17,24.80
2015,07,20,13,18,25.00
2015,07,20,13,19,25.00
2015,07,20,13,20,25.10
2015,07,20,13,21,25.20
2015,07,20,13,22,25.30
2015,07,20,13,23,25.30
2015,07,20,13,24,25.40
2015,07,20,13,25,25.50
2015,07,20,13,26,25.60
2015,07,20,13,27,25.70
2015,07,20,13,28,25.70
2015,07,20,13,29,25.70
2015,07,20,13,30,25.80
2015,07,20,13,31,25.80
2015,07,20,13,32,25.80
2015,07,20,13,33,25.90
2015,07,20,13,34,25.90
2015,07,20,13,35,25.90
2015,07,20,13,36,25.90
2015,07,20,13,37,26.00
2015,07,20,13,38,26.00
2015,07,20,13,39,26.10
2015,07,20,13,40,26.10
2015,07,20,13,41,26.00
2015,07,20,13,42,26.00
2015,07,20,13,43,25.90
2015,07,20,13,44,25.90
2015,07,20,13,45,25.90
2015,07,20,13,46,25.90
2015,07,20,13,47,25.80
2015,07,20,13,48,25.80
2015,07,20,13,49,25.70
2015,07,20,13,50,25.70
2015,07,20,13,51,25.80
2015,07,20,13,52,25.80
2015,07,20,13,53,25.80
2015,07,20,13,54,25.90
2015,07,20,13,55,25.90
2015,07,20,13,56,25.80
2015,07,20,13,57,25.70
2015,07,20,13,58,25.70
2015,07,20,13,59,25.70
2015,07,20,14,00,25.80
2015,07,20,14,01,25.80
2015,07,20,14,02,25.90
2015,07,20,14,03,25.90
2015,07,20,14,04,25.80
2015,07,20,14,05,25.80
2015,07,20,14,06,25.80
2015,07,20,14,07,25.80
2015,07,20,14,08,25.80
2015,07,20,14,09,25.80
2015,07,20,14,10,25.80
2015,07,20,14,11,25.80
2015,07,20,14,12,25.80
2015,07,20,14,13,25.80
2015,07,20,14,14,25.80
2015,07,20,14,15,25.80
2015,07,20,14,16,25.80
2015,07,20,14,17,25.80
2015,07,20,14,18,25.70
2015,07,20,14,19,25.80
2015,07,20,14,20,25.70
2015,07,20,14,21,25.70
2015,07,20,14,22,25.70
2015,07,20,14,23,25.70
2015,07,20,14,24,25.70
2015,07,20,14,25,25.70
2015,07,20,14,26,25.60
2015,07,20,14,27,25.60
2015,07,20,14,28,25.60
2015,07,20,14,29,25.60
2015,07,20,14,30,25.60
2015,07,20,14,31,25.70
2015,07,20,14,32,25.60
2015,07,20,14,33,25.60
2015,07,20,14,34,25.60
2015,07,20,14,35,25.60
2015,07,20,14,36,25.50
2015,07,20,14,37,25.40
2015,07,20,14,38,25.40
2015,07,20,14,39,25.40
2015,07,20,14,40,25.40
2015,07,20,14,41,25.50
2015,07,20,14,42,25.50
2015,07,20,14,43,25.60
2015,07,20,14,44,25.60
2015,07,20,14,45,25.60
2015,07,20,14,46,25.60
2015,07,20,14,47,25.70
2015,07,20,14,48,25.60
2015,07,20,14,49,25.50
2015,07,20,14,50,25.40
2015,07,20,14,51,25.40
2015,07,20,14,52,25.40
2015,07,20,14,53,25.40
2015,07,20,14,54,25.40
2015,07,20,14,55,25.40
2015,07,20,14,56,25.40
2015,07,20,14,57,25.30
2015,07,20,14,58,25.30
2015,07,20,14,59,25.30
2015,07,20,15,00,25.40
2015,07,20,15,01,25.40
2015,07,20,15,02,25.40
2015,07,20,15,03,25.40
2015,07,20,15,04,25.40
2015,07,20,15,05,25.40
2015,07,20,15,06,25.40
2015,07,20,15,07,25.50
2015,07,20,15,08,25.50
2015,07,20,15,09,25.40
2015,07,20,15,10,25.30
2015,07,20,15,11,25.30
2015,07,20,15,12,25.20
2015,07,20,15,13,25.10
2015,07,20,15,14,25.10
2015,07,20,15,15,25.10
2015,07,20,15,16,25.10
2015,07,20,15,17,25.00
2015,07,20,15,18,25.00
2015,07,20,15,19,24.90
2015,07,20,15,20,24.90
2015,07,20,15,21,24.90
2015,07,20,15,22,24.90
2015,07,20,15,23,25.00
2015,07,20,15,24,25.00
2015,07,20,15,25,25.10
2015,07,20,15,26,25.10
2015,07,20,15,27,25.10
2015,07,20,15,28,25.10
2015,07,20,15,29,25.10
2015,07,20,15,30,25.00
2015,07,20,15,31,24.90
2015,07,20,15,32,24.90
2015,07,20,15,33,24.80
2015,07,20,15,34,24.80
2015,07,20,15,35,24.90
2015,07,20,15,36,24.90
2015,07,20,15,37,24.90
2015,07,20,15,38,25.00
2015,07,20,15,39,25.00
2015,07,20,15,40,25.00
2015,07,20,15,41,24.90
2015,07,20,15,42,24.80
2015,07,20,15,43,24.80
2015,07,20,15,44,24.80
2015,07,20,15,45,24.80
2015,07,20,15,46,24.80
2015,07,20,15,47,24.80
2015,07,20,15,48,24.80
2015,07,20,15,49,24.90
2015,07,20,15,50,24.90
2015,07,20,15,51,24.90
2015,07,20,15,52,24.90
2015,07,20,15,53,24.90
2015,07,20,15,54,24.90
2015,07,20,15,55,24.80
2015,07,20,15,56,24.80
2015,07,20,15,57,24.80
2015,07,20,15,58,24.80
2015,07,20,15,59,24.80
2015,07,20,16,00,24.80
2015,07,20,16,01,24.80
2015,07,20,16,02,24.80
2015,07,20,16,03,24.70
2015,07,20,16,04,24.60
2015,07,20,16,05,24.50
2015,07,20,16,06,24.40
2015,07,20,16,07,24.30
2015,07,20,16,08,24.20
2015,07,20,16,09,24.10
2015,07,20,16,10,24.00
2015,07,20,16,11,23.90
2015,07,20,16,12,23.80
2015,07,20,16,13,23.90
2015,07,20,16,14,23.90
2015,07,20,16,15,24.00
2015,07,20,16,16,24.00
2015,07,20,16,17,24.10
2015,07,20,16,18,24.20
2015,07,20,16,19,24.20
2015,07,20,16,20,24.20
2015,07,20,16,21,24.20
2015,07,20,16,22,24.20
2015,07,20,16,23,24.00
2015,07,20,16,24,23.90
2015,07,20,16,25,23.90
2015,07,20,16,26,23.80
2015,07,20,16,27,23.80
2015,07,20,16,28,23.90
2015,07,20,16,29,23.90
2015,07,20,16,30,23.90
2015,07,20,16,31,24.00
2015,07,20,16,32,24.00
2015,07,20,16,33,24.00
2015,07,20,16,34,23.90
2015,07,20,16,35,23.90
2015,07,20,16,36,23.80
2015,07,20,16,37,23.80
2015,07,20,16,38,23.80
2015,07,20,16,39,23.80
2015,07,20,16,40,23.70
2015,07,20,16,41,23.60
2015,07,20,16,42,23.50
2015,07,20,16,43,23.50
2015,07,20,16,44,23.40
2015,07,20,16,45,23.40
2015,07,20,16,46,23.50
2015,07,20,16,47,23.50
2015,07,20,16,48,23.60
2015,07,20,16,49,23.70
2015,07,20,16,50,23.70
2015,07,20,16,51,23.70
2015,07,20,16,52,23.60
2015,07,20,16,53,23.60
2015,07,20,16,54,23.70
2015,07,20,16,55,23.70
2015,07,20,16,56,23.70
2015,07,20,16,57,23.70
2015,07,20,16,58,23.70
2015,07,20,16,59,23.60
2015,07,20,17,00,23.50
2015,07,20,17,01,23.40
2015,07,20,17,02,23.30
2015,07,20,17,03,23.30
2015,07,20,17,04,23.20
2015,07,20,17,05,23.20
2015,07,20,17,06,23.20
2015,07,20,17,07,23.20
2015,07,20,17,08,23.20
2015,07,20,17,09,23.20
2015,07,20,17,10,23.30
2015,07,20,17,11,23.30
2015,07,20,17,12,23.30
2015,07,20,17,13,23.30
2015,07,20,17,14,23.30
2015,07,20,17,15,23.30
2015,07,20,17,16,23.30
2015,07,20,17,17,23.30
2015,07,20,17,18,23.30
2015,07,20,17,19,23.20
2015,07,20,17,20,23.20
2015,07,20,17,21,23.30